Year,Month,Day,Hour,Minute,Value (Times are PST for temperature in C)
2014,03,25,00,00,9.20
2014,03,25,00,01,9.20
2014,03,25,00,02,9.20
2014,03,25,00,03,9.20
2014,03,25,00,04,9.30
2014,03,25,00,05,9.30
2014,03,25,00,06,9.30
2014,03,25,00,07,9.30
2014,03,25,00,08,9.40
2014,03,25,00,09,9.40
2014,03,25,00,10,9.40
2014,03,25,00,11,9.50
2014,03,25,00,12,9.50
2014,03,25,00,13,9.60
2014,03,25,00,14,9.60
2014,03,25,00,15,9.60
2014,03,25,00,16,9.60
2014,03,25,00,17,9.60
2014,03,25,00,18,9.70
2014,03,25,00,19,9.70
2014,03,25,00,20,9.70
2014,03,25,00,21,9.70
2014,03,25,00,22,9.70
2014,03,25,00,23,9.70
2014,03,25,00,24,9.80
2014,03,25,00,25,9.80
2014,03,25,00,26,9.80
2014,03,25,00,27,9.80
2014,03,25,00,28,9.80
2014,03,25,00,29,9.70
2014,03,25,00,30,9.60
2014,03,25,00,31,9.50
2014,03,25,00,32,9.40
2014,03,25,00,33,9.30
2014,03,25,00,34,9.30
2014,03,25,00,35,9.20
2014,03,25,00,36,9.10
2014,03,25,00,37,9.10
2014,03,25,00,38,9.00
2014,03,25,00,39,9.00
2014,03,25,00,40,9.00
2014,03,25,00,41,8.90
2014,03,25,00,42,8.90
2014,03,25,00,43,8.90
2014,03,25,00,44,8.90
2014,03,25,00,45,8.90
2014,03,25,00,46,8.90
2014,03,25,00,47,8.90
2014,03,25,00,48,9.00
2014,03,25,00,49,9.00
2014,03,25,00,50,9.00
2014,03,25,00,51,8.90
2014,03,25,00,52,8.90
2014,03,25,00,53,9.00
2014,03,25,00,54,9.00
2014,03,25,00,55,9.10
2014,03,25,00,56,9.10
2014,03,25,00,57,9.10
2014,03,25,00,58,9.10
2014,03,25,00,59,9.20
2014,03,25,01,00,9.20
2014,03,25,01,01,9.20
2014,03,25,01,02,9.10
2014,03,25,01,03,9.00
2014,03,25,01,04,8.90
2014,03,25,01,05,8.80
2014,03,25,01,06,8.60
2014,03,25,01,07,8.50
2014,03,25,01,08,8.40
2014,03,25,01,09,8.30
2014,03,25,01,10,8.30
2014,03,25,01,11,8.20
2014,03,25,01,12,8.20
2014,03,25,01,13,8.20
2014,03,25,01,14,8.10
2014,03,25,01,15,8.10
2014,03,25,01,16,8.10
2014,03,25,01,17,8.10
2014,03,25,01,18,8.10
2014,03,25,01,19,8.10
2014,03,25,01,20,8.20
2014,03,25,01,21,8.20
2014,03,25,01,22,8.20
2014,03,25,01,23,8.20
2014,03,25,01,24,8.20
2014,03,25,01,25,8.20
2014,03,25,01,26,8.20
2014,03,25,01,27,8.20
2014,03,25,01,28,8.30
2014,03,25,01,29,8.30
2014,03,25,01,30,8.30
2014,03,25,01,31,8.30
2014,03,25,01,32,8.30
2014,03,25,01,33,8.30
2014,03,25,01,34,8.30
2014,03,25,01,35,8.30
2014,03,25,01,36,8.40
2014,03,25,01,37,8.40
2014,03,25,01,38,8.40
2014,03,25,01,39,8.40
2014,03,25,01,40,8.40
2014,03,25,01,41,8.40
2014,03,25,01,42,8.40
2014,03,25,01,43,8.40
2014,03,25,01,44,8.40
2014,03,25,01,45,8.40
2014,03,25,01,46,8.40
2014,03,25,01,47,8.40
2014,03,25,01,48,8.40
2014,03,25,01,49,8.40
2014,03,25,01,50,8.40
2014,03,25,01,51,8.40
2014,03,25,01,52,8.40
2014,03,25,01,53,8.40
2014,03,25,01,54,8.40
2014,03,25,01,55,8.40
2014,03,25,01,56,8.40
2014,03,25,01,57,8.40
2014,03,25,01,58,8.40
2014,03,25,01,59,8.40
2014,03,25,02,00,8.40
2014,03,25,02,01,8.40
2014,03,25,02,02,8.40
2014,03,25,02,03,8.40
2014,03,25,02,04,8.40
2014,03,25,02,05,8.40
2014,03,25,02,06,8.40
2014,03,25,02,07,8.40
2014,03,25,02,08,8.40
2014,03,25,02,09,8.30
2014,03,25,02,10,8.30
2014,03,25,02,11,8.30
2014,03,25,02,12,8.30
2014,03,25,02,13,8.30
2014,03,25,02,14,8.30
2014,03,25,02,15,8.30
2014,03,25,02,16,8.30
2014,03,25,02,17,8.30
2014,03,25,02,18,8.20
2014,03,25,02,19,8.20
2014,03,25,02,20,8.20
2014,03,25,02,21,8.20
2014,03,25,02,22,8.20
2014,03,25,02,23,8.20
2014,03,25,02,24,8.20
2014,03,25,02,25,8.20
2014,03,25,02,26,8.20
2014,03,25,02,27,8.20
2014,03,25,02,28,8.20
2014,03,25,02,29,8.20
2014,03,25,02,30,8.20
2014,03,25,02,31,8.10
2014,03,25,02,32,8.10
2014,03,25,02,33,8.10
2014,03,25,02,34,8.10
2014,03,25,02,35,8.10
2014,03,25,02,36,8.10
2014,03,25,02,37,8.10
2014,03,25,02,38,8.10
2014,03,25,02,39,8.00
2014,03,25,02,40,8.00
2014,03,25,02,41,8.00
2014,03,25,02,42,8.10
2014,03,25,02,43,8.00
2014,03,25,02,44,8.00
2014,03,25,02,45,8.00
2014,03,25,02,46,8.00
2014,03,25,02,47,8.00
2014,03,25,02,48,8.00
2014,03,25,02,49,8.00
2014,03,25,02,50,7.90
2014,03,25,02,51,7.90
2014,03,25,02,52,7.90
2014,03,25,02,53,7.90
2014,03,25,02,54,7.90
2014,03,25,02,55,7.90
2014,03,25,02,56,7.80
2014,03,25,02,57,7.80
2014,03,25,02,58,7.80
2014,03,25,02,59,7.80
2014,03,25,03,00,7.80
2014,03,25,03,01,7.80
2014,03,25,03,02,7.80
2014,03,25,03,03,7.80
2014,03,25,03,04,7.80
2014,03,25,03,05,7.80
2014,03,25,03,06,7.80
2014,03,25,03,07,7.80
2014,03,25,03,08,7.80
2014,03,25,03,09,7.80
2014,03,25,03,10,7.70
2014,03,25,03,11,7.70
2014,03,25,03,12,7.70
2014,03,25,03,13,7.70
2014,03,25,03,14,7.70
2014,03,25,03,15,7.80
2014,03,25,03,16,7.80
2014,03,25,03,17,7.80
2014,03,25,03,18,7.80
2014,03,25,03,19,7.80
2014,03,25,03,20,7.80
2014,03,25,03,21,7.80
2014,03,25,03,22,7.80
2014,03,25,03,23,7.80
2014,03,25,03,24,7.80
2014,03,25,03,25,7.80
2014,03,25,03,26,7.80
2014,03,25,03,27,7.80
2014,03,25,03,28,7.80
2014,03,25,03,29,7.90
2014,03,25,03,30,7.90
2014,03,25,03,31,7.90
2014,03,25,03,32,7.90
2014,03,25,03,33,7.90
2014,03,25,03,34,7.90
2014,03,25,03,35,7.90
2014,03,25,03,36,7.90
2014,03,25,03,37,7.90
2014,03,25,03,38,7.90
2014,03,25,03,39,7.90
2014,03,25,03,40,7.90
2014,03,25,03,41,7.90
2014,03,25,03,42,7.90
2014,03,25,03,43,7.90
2014,03,25,03,44,7.90
2014,03,25,03,45,7.90
2014,03,25,03,46,7.90
2014,03,25,03,47,7.90
2014,03,25,03,48,7.90
2014,03,25,03,49,7.90
2014,03,25,03,50,7.90
2014,03,25,03,51,7.90
2014,03,25,03,52,7.90
2014,03,25,03,53,7.80
2014,03,25,03,54,7.80
2014,03,25,03,55,7.80
2014,03,25,03,56,7.80
2014,03,25,03,57,7.80
2014,03,25,03,58,7.90
2014,03,25,03,59,7.90
2014,03,25,04,00,7.90
2014,03,25,04,01,7.90
2014,03,25,04,02,7.90
2014,03,25,04,03,7.90
2014,03,25,04,04,7.90
2014,03,25,04,05,7.90
2014,03,25,04,06,7.80
2014,03,25,04,07,7.80
2014,03,25,04,08,7.80
2014,03,25,04,09,7.80
2014,03,25,04,10,7.80
2014,03,25,04,11,7.80
2014,03,25,04,12,7.80
2014,03,25,04,13,7.80
2014,03,25,04,14,7.80
2014,03,25,04,15,7.80
2014,03,25,04,16,7.80
2014,03,25,04,17,7.80
2014,03,25,04,18,7.80
2014,03,25,04,19,7.80
2014,03,25,04,20,7.80
2014,03,25,04,21,7.80
2014,03,25,04,22,7.80
2014,03,25,04,23,7.80
2014,03,25,04,24,7.80
2014,03,25,04,25,7.80
2014,03,25,04,26,7.80
2014,03,25,04,27,7.80
2014,03,25,04,28,7.80
2014,03,25,04,29,7.80
2014,03,25,04,30,7.80
2014,03,25,04,31,7.80
2014,03,25,04,32,7.80
2014,03,25,04,33,7.80
2014,03,25,04,34,7.80
2014,03,25,04,35,7.80
2014,03,25,04,36,7.80
2014,03,25,04,37,7.80
2014,03,25,04,38,7.80
2014,03,25,04,39,7.80
2014,03,25,04,40,7.80
2014,03,25,04,41,7.80
2014,03,25,04,42,7.80
2014,03,25,04,43,7.80
2014,03,25,04,44,7.80
2014,03,25,04,45,7.80
2014,03,25,04,46,7.80
2014,03,25,04,47,7.80
2014,03,25,04,48,7.80
2014,03,25,04,49,7.90
2014,03,25,04,50,7.90
2014,03,25,04,51,7.90
2014,03,25,04,52,7.90
2014,03,25,04,53,7.90
2014,03,25,04,54,7.90
2014,03,25,04,55,7.90
2014,03,25,04,56,8.00
2014,03,25,04,57,8.00
2014,03,25,04,58,8.00
2014,03,25,04,59,8.00
2014,03,25,05,00,8.00
2014,03,25,05,01,8.00
2014,03,25,05,02,8.00
2014,03,25,05,03,8.00
2014,03,25,05,04,8.00
2014,03,25,05,05,8.00
2014,03,25,05,06,8.00
2014,03,25,05,07,8.00
2014,03,25,05,08,8.10
2014,03,25,05,09,8.10
2014,03,25,05,10,8.10
2014,03,25,05,11,8.10
2014,03,25,05,12,8.10
2014,03,25,05,13,8.10
2014,03,25,05,14,8.10
2014,03,25,05,15,8.10
2014,03,25,05,16,8.10
2014,03,25,05,17,8.10
2014,03,25,05,18,8.10
2014,03,25,05,19,8.10
2014,03,25,05,20,8.10
2014,03,25,05,21,8.10
2014,03,25,05,22,8.10
2014,03,25,05,23,8.10
2014,03,25,05,24,8.00
2014,03,25,05,25,8.00
2014,03,25,05,26,8.00
2014,03,25,05,27,8.00
2014,03,25,05,28,8.00
2014,03,25,05,29,8.10
2014,03,25,05,30,8.10
2014,03,25,05,31,8.10
2014,03,25,05,32,8.10
2014,03,25,05,33,8.10
2014,03,25,05,34,8.10
2014,03,25,05,35,8.10
2014,03,25,05,36,8.10
2014,03,25,05,37,8.10
2014,03,25,05,38,8.10
2014,03,25,05,39,8.10
2014,03,25,05,40,8.10
2014,03,25,05,41,8.10
2014,03,25,05,42,8.20
2014,03,25,05,43,8.20
2014,03,25,05,44,8.20
2014,03,25,05,45,8.20
2014,03,25,05,46,8.20
2014,03,25,05,47,8.20
2014,03,25,05,48,8.20
2014,03,25,05,49,8.10
2014,03,25,05,50,8.10
2014,03,25,05,51,8.10
2014,03,25,05,52,8.10
2014,03,25,05,53,8.00
2014,03,25,05,54,8.00
2014,03,25,05,55,8.00
2014,03,25,05,56,7.90
2014,03,25,05,57,7.90
2014,03,25,05,58,7.90
2014,03,25,05,59,7.90
2014,03,25,06,00,7.90
2014,03,25,06,01,7.90
2014,03,25,06,02,7.90
2014,03,25,06,03,8.00
2014,03,25,06,04,8.00
2014,03,25,06,05,8.00
2014,03,25,06,06,8.00
2014,03,25,06,07,8.10
2014,03,25,06,08,8.10
2014,03,25,06,09,8.10
2014,03,25,06,10,8.10
2014,03,25,06,11,8.20
2014,03,25,06,12,8.20
2014,03,25,06,13,8.20
2014,03,25,06,14,8.20
2014,03,25,06,15,8.30
2014,03,25,06,16,8.30
2014,03,25,06,17,8.30
2014,03,25,06,18,8.30
2014,03,25,06,19,8.30
2014,03,25,06,20,8.30
2014,03,25,06,21,8.30
2014,03,25,06,22,8.30
2014,03,25,06,23,8.30
2014,03,25,06,24,8.30
2014,03,25,06,25,8.30
2014,03,25,06,26,8.30
2014,03,25,06,27,8.40
2014,03,25,06,28,8.40
2014,03,25,06,29,8.40
2014,03,25,06,30,8.40
2014,03,25,06,31,8.40
2014,03,25,06,32,8.40
2014,03,25,06,33,8.40
2014,03,25,06,34,8.40
2014,03,25,06,35,8.40
2014,03,25,06,36,8.40
2014,03,25,06,37,8.40
2014,03,25,06,38,8.40
2014,03,25,06,39,8.40
2014,03,25,06,40,8.40
2014,03,25,06,41,8.40
2014,03,25,06,42,8.40
2014,03,25,06,43,8.40
2014,03,25,06,44,8.40
2014,03,25,06,45,8.30
2014,03,25,06,46,8.30
2014,03,25,06,47,8.30
2014,03,25,06,48,8.30
2014,03,25,06,49,8.20
2014,03,25,06,50,8.20
2014,03,25,06,51,8.20
2014,03,25,06,52,8.20
2014,03,25,06,53,8.20
2014,03,25,06,54,8.10
2014,03,25,06,55,8.10
2014,03,25,06,56,8.10
2014,03,25,06,57,8.10
2014,03,25,06,58,8.00
2014,03,25,06,59,8.00
2014,03,25,07,00,7.90
2014,03,25,07,01,7.90
2014,03,25,07,02,7.90
2014,03,25,07,03,7.90
2014,03,25,07,04,7.80
2014,03,25,07,05,7.80
2014,03,25,07,06,7.80
2014,03,25,07,07,7.80
2014,03,25,07,08,7.80
2014,03,25,07,09,7.80
2014,03,25,07,10,7.80
2014,03,25,07,11,7.80
2014,03,25,07,12,7.80
2014,03,25,07,13,7.80
2014,03,25,07,14,7.80
2014,03,25,07,15,7.80
2014,03,25,07,16,7.80
2014,03,25,07,17,7.80
2014,03,25,07,18,7.80
2014,03,25,07,19,7.80
2014,03,25,07,20,7.80
2014,03,25,07,21,7.80
2014,03,25,07,22,7.80
2014,03,25,07,23,7.80
2014,03,25,07,24,7.80
2014,03,25,07,25,7.80
2014,03,25,07,26,7.80
2014,03,25,07,27,7.80
2014,03,25,07,28,7.70
2014,03,25,07,29,7.70
2014,03,25,07,30,7.70
2014,03,25,07,31,7.70
2014,03,25,07,32,7.70
2014,03,25,07,33,7.70
2014,03,25,07,34,7.70
2014,03,25,07,35,7.70
2014,03,25,07,36,7.70
2014,03,25,07,37,7.70
2014,03,25,07,38,7.70
2014,03,25,07,39,7.80
2014,03,25,07,40,7.80
2014,03,25,07,41,7.80
2014,03,25,07,42,7.80
2014,03,25,07,43,7.80
2014,03,25,07,44,7.80
2014,03,25,07,45,7.80
2014,03,25,07,46,7.80
2014,03,25,07,47,7.80
2014,03,25,07,48,7.80
2014,03,25,07,49,7.80
2014,03,25,07,50,7.80
2014,03,25,07,51,7.80
2014,03,25,07,52,7.80
2014,03,25,07,53,7.80
2014,03,25,07,54,7.80
2014,03,25,07,55,7.80
2014,03,25,07,56,7.90
2014,03,25,07,57,7.90
2014,03,25,07,58,7.90
2014,03,25,07,59,7.90
2014,03,25,08,00,7.90
2014,03,25,08,01,7.90
2014,03,25,08,02,7.90
2014,03,25,08,03,7.90
2014,03,25,08,04,7.90
2014,03,25,08,05,7.90
2014,03,25,08,06,8.00
2014,03,25,08,07,8.00
2014,03,25,08,08,8.00
2014,03,25,08,09,8.00
2014,03,25,08,10,8.00
2014,03,25,08,11,8.00
2014,03,25,08,12,8.00
2014,03,25,08,13,8.10
2014,03,25,08,14,8.10
2014,03,25,08,15,8.10
2014,03,25,08,16,8.10
2014,03,25,08,17,8.00
2014,03,25,08,18,8.00
2014,03,25,08,19,8.00
2014,03,25,08,20,7.90
2014,03,25,08,21,7.90
2014,03,25,08,22,7.90
2014,03,25,08,23,7.90
2014,03,25,08,24,7.90
2014,03,25,08,25,7.90
2014,03,25,08,26,7.80
2014,03,25,08,27,7.80
2014,03,25,08,28,7.80
2014,03,25,08,29,7.80
2014,03,25,08,30,7.80
2014,03,25,08,31,7.80
2014,03,25,08,32,7.80
2014,03,25,08,33,7.80
2014,03,25,08,34,7.80
2014,03,25,08,35,7.80
2014,03,25,08,36,7.80
2014,03,25,08,37,7.80
2014,03,25,08,38,7.80
2014,03,25,08,39,7.80
2014,03,25,08,40,7.80
2014,03,25,08,41,7.80
2014,03,25,08,42,7.80
2014,03,25,08,43,7.80
2014,03,25,08,44,7.80
2014,03,25,08,45,7.80
2014,03,25,08,46,7.80
2014,03,25,08,47,7.80
2014,03,25,08,48,7.80
2014,03,25,08,49,7.80
2014,03,25,08,50,7.80
2014,03,25,08,51,7.80
2014,03,25,08,52,7.80
2014,03,25,08,53,7.80
2014,03,25,08,54,7.80
2014,03,25,08,55,7.80
2014,03,25,08,56,7.80
2014,03,25,08,57,7.80
2014,03,25,08,58,7.80
2014,03,25,08,59,7.80
2014,03,25,09,00,7.80
2014,03,25,09,01,7.80
2014,03,25,09,02,7.80
2014,03,25,09,03,7.80
2014,03,25,09,04,7.80
2014,03,25,09,05,7.80
2014,03,25,09,06,7.80
2014,03,25,09,07,7.80
2014,03,25,09,08,7.80
2014,03,25,09,09,7.80
2014,03,25,09,10,7.80
2014,03,25,09,11,7.80
2014,03,25,09,12,7.80
2014,03,25,09,13,7.80
2014,03,25,09,14,7.80
2014,03,25,09,15,7.80
2014,03,25,09,16,7.80
2014,03,25,09,17,7.80
2014,03,25,09,18,7.80
2014,03,25,09,19,7.80
2014,03,25,09,20,7.90
2014,03,25,09,21,7.90
2014,03,25,09,22,7.90
2014,03,25,09,23,7.90
2014,03,25,09,24,8.00
2014,03,25,09,25,8.00
2014,03,25,09,26,8.10
2014,03,25,09,27,8.10
2014,03,25,09,28,8.30
2014,03,25,09,29,8.40
2014,03,25,09,30,8.50
2014,03,25,09,31,8.60
2014,03,25,09,32,8.60
2014,03,25,09,33,8.60
2014,03,25,09,34,8.70
2014,03,25,09,35,8.70
2014,03,25,09,36,8.70
2014,03,25,09,37,8.70
2014,03,25,09,38,8.70
2014,03,25,09,39,8.70
2014,03,25,09,40,8.80
2014,03,25,09,41,8.80
2014,03,25,09,42,8.80
2014,03,25,09,43,8.80
2014,03,25,09,44,8.80
2014,03,25,09,45,8.80
2014,03,25,09,46,8.90
2014,03,25,09,47,9.00
2014,03,25,09,48,9.10
2014,03,25,09,49,9.30
2014,03,25,09,50,9.50
2014,03,25,09,51,9.70
2014,03,25,09,52,9.90
2014,03,25,09,53,10.10
2014,03,25,09,54,10.20
2014,03,25,09,55,10.30
2014,03,25,09,56,10.30
2014,03,25,09,57,10.40
2014,03,25,09,58,10.40
2014,03,25,09,59,10.40
2014,03,25,10,00,10.40
2014,03,25,10,01,10.40
2014,03,25,10,02,10.40
2014,03,25,10,03,10.40
2014,03,25,10,04,10.40
2014,03,25,10,05,10.40
2014,03,25,10,06,10.50
2014,03,25,10,07,10.50
2014,03,25,10,08,10.50
2014,03,25,10,09,10.50
2014,03,25,10,10,10.50
2014,03,25,10,11,10.50
2014,03,25,10,12,10.50
2014,03,25,10,13,10.50
2014,03,25,10,14,10.50
2014,03,25,10,15,10.50
2014,03,25,10,16,10.60
2014,03,25,10,17,10.60
2014,03,25,10,18,10.60
2014,03,25,10,19,10.60
2014,03,25,10,20,10.60
2014,03,25,10,21,10.60
2014,03,25,10,22,10.70
2014,03,25,10,23,10.70
2014,03,25,10,24,10.70
2014,03,25,10,25,10.70
2014,03,25,10,26,10.70
2014,03,25,10,27,10.70
2014,03,25,10,28,10.70
2014,03,25,10,29,10.70
2014,03,25,10,30,10.60
2014,03,25,10,31,10.60
2014,03,25,10,32,10.50
2014,03,25,10,33,10.50
2014,03,25,10,34,10.50
2014,03,25,10,35,10.40
2014,03,25,10,36,10.40
2014,03,25,10,37,10.40
2014,03,25,10,38,10.40
2014,03,25,10,39,10.30
2014,03,25,10,40,10.30
2014,03,25,10,41,10.30
2014,03,25,10,42,10.30
2014,03,25,10,43,10.30
2014,03,25,10,44,10.30
2014,03,25,10,45,10.20
2014,03,25,10,46,10.20
2014,03,25,10,47,10.20
2014,03,25,10,48,10.20
2014,03,25,10,49,10.20
2014,03,25,10,50,10.30
2014,03,25,10,51,10.30
2014,03,25,10,52,10.30
2014,03,25,10,53,10.30
2014,03,25,10,54,10.30
2014,03,25,10,55,10.30
2014,03,25,10,56,10.30
2014,03,25,10,57,10.30
2014,03,25,10,58,10.40
2014,03,25,10,59,10.40
2014,03,25,11,00,10.50
2014,03,25,11,01,10.60
2014,03,25,11,02,10.70
2014,03,25,11,03,10.70
2014,03,25,11,04,10.70
2014,03,25,11,05,10.60
2014,03,25,11,06,10.60
2014,03,25,11,07,10.60
2014,03,25,11,08,10.60
2014,03,25,11,09,10.60
2014,03,25,11,10,10.50
2014,03,25,11,11,10.40
2014,03,25,11,12,10.40
2014,03,25,11,13,10.40
2014,03,25,11,14,10.40
2014,03,25,11,15,10.40
2014,03,25,11,16,10.30
2014,03,25,11,17,10.20
2014,03,25,11,18,10.20
2014,03,25,11,19,10.20
2014,03,25,11,20,10.10
2014,03,25,11,21,10.00
2014,03,25,11,22,10.00
2014,03,25,11,23,10.00
2014,03,25,11,24,9.90
2014,03,25,11,25,10.00
2014,03,25,11,26,10.00
2014,03,25,11,27,10.00
2014,03,25,11,28,9.90
2014,03,25,11,29,9.90
2014,03,25,11,30,9.90
2014,03,25,11,31,9.90
2014,03,25,11,32,9.80
2014,03,25,11,33,9.80
2014,03,25,11,34,9.80
2014,03,25,11,35,9.80
2014,03,25,11,36,9.80
2014,03,25,11,37,9.80
2014,03,25,11,38,9.80
2014,03,25,11,39,9.70
2014,03,25,11,40,9.70
2014,03,25,11,41,9.70
2014,03,25,11,42,9.60
2014,03,25,11,43,9.60
2014,03,25,11,44,9.60
2014,03,25,11,45,9.50
2014,03,25,11,46,9.50
2014,03,25,11,47,9.50
2014,03,25,11,48,9.60
2014,03,25,11,49,9.60
2014,03,25,11,50,9.60
2014,03,25,11,51,9.70
2014,03,25,11,52,9.70
2014,03,25,11,53,9.70
2014,03,25,11,54,9.70
2014,03,25,11,55,9.80
2014,03,25,11,56,9.90
2014,03,25,11,57,10.00
2014,03,25,11,58,10.00
2014,03,25,11,59,10.10
2014,03,25,12,00,10.20
2014,03,25,12,01,10.30
2014,03,25,12,02,10.40
2014,03,25,12,03,10.50
2014,03,25,12,04,10.60
2014,03,25,12,05,10.60
2014,03,25,12,06,10.70
2014,03,25,12,07,10.70
2014,03,25,12,08,10.80
2014,03,25,12,09,10.80
2014,03,25,12,10,10.80
2014,03,25,12,11,10.80
2014,03,25,12,12,10.70
2014,03,25,12,13,10.70
2014,03,25,12,14,10.70
2014,03,25,12,15,10.70
2014,03,25,12,16,10.70
2014,03,25,12,17,10.80
2014,03,25,12,18,10.80
2014,03,25,12,19,10.90
2014,03,25,12,20,10.90
2014,03,25,12,21,11.00
2014,03,25,12,22,11.00
2014,03,25,12,23,11.10
2014,03,25,12,24,11.20
2014,03,25,12,25,11.20
2014,03,25,12,26,11.20
2014,03,25,12,27,11.20
2014,03,25,12,28,11.20
2014,03,25,12,29,11.20
2014,03,25,12,30,11.20
2014,03,25,12,31,11.20
2014,03,25,12,32,11.20
2014,03,25,12,33,11.20
2014,03,25,12,34,11.20
2014,03,25,12,35,11.20
2014,03,25,12,36,11.20
2014,03,25,12,37,11.20
2014,03,25,12,38,11.20
2014,03,25,12,39,11.20
2014,03,25,12,40,11.20
2014,03,25,12,41,11.20
2014,03,25,12,42,11.20
2014,03,25,12,43,11.20
2014,03,25,12,44,11.20
2014,03,25,12,45,11.20
2014,03,25,12,46,11.20
2014,03,25,12,47,11.20
2014,03,25,12,48,11.20
2014,03,25,12,49,11.20
2014,03,25,12,50,11.10
2014,03,25,12,51,11.10
2014,03,25,12,52,11.00
2014,03,25,12,53,11.00
2014,03,25,12,54,10.90
2014,03,25,12,55,10.90
2014,03,25,12,56,10.90
2014,03,25,12,57,10.80
2014,03,25,12,58,10.80
2014,03,25,12,59,10.80
2014,03,25,13,00,10.80
2014,03,25,13,01,10.70
2014,03,25,13,02,10.70
2014,03,25,13,03,10.70
2014,03,25,13,04,10.70
2014,03,25,13,05,10.70
2014,03,25,13,06,10.60
2014,03,25,13,07,10.60
2014,03,25,13,08,10.60
2014,03,25,13,09,10.60
2014,03,25,13,10,10.60
2014,03,25,13,11,10.50
2014,03,25,13,12,10.50
2014,03,25,13,13,10.50
2014,03,25,13,14,10.50
2014,03,25,13,15,10.50
2014,03,25,13,16,10.50
2014,03,25,13,17,10.50
2014,03,25,13,18,10.60
2014,03,25,13,19,10.60
2014,03,25,13,20,10.60
2014,03,25,13,21,10.60
2014,03,25,13,22,10.50
2014,03,25,13,23,10.50
2014,03,25,13,24,10.50
2014,03,25,13,25,10.50
2014,03,25,13,26,10.50
2014,03,25,13,27,10.40
2014,03,25,13,28,10.40
2014,03,25,13,29,10.40
2014,03,25,13,30,10.40
2014,03,25,13,31,10.40
2014,03,25,13,32,10.40
2014,03,25,13,33,10.40
2014,03,25,13,34,10.40
2014,03,25,13,35,10.40
2014,03,25,13,36,10.40
2014,03,25,13,37,10.40
2014,03,25,13,38,10.40
2014,03,25,13,39,10.40
2014,03,25,13,40,10.40
2014,03,25,13,41,10.40
2014,03,25,13,42,10.40
2014,03,25,13,43,10.30
2014,03,25,13,44,10.30
2014,03,25,13,45,10.30
2014,03,25,13,46,10.30
2014,03,25,13,47,10.20
2014,03,25,13,48,10.20
2014,03,25,13,49,10.20
2014,03,25,13,50,10.20
2014,03,25,13,51,10.20
2014,03,25,13,52,10.20
2014,03,25,13,53,10.20
2014,03,25,13,54,10.20
2014,03,25,13,55,10.20
2014,03,25,13,56,10.10
2014,03,25,13,57,10.10
2014,03,25,13,58,10.10
2014,03,25,13,59,10.00
2014,03,25,14,00,9.90
2014,03,25,14,01,9.90
2014,03,25,14,02,9.90
2014,03,25,14,03,9.90
2014,03,25,14,04,9.90
2014,03,25,14,05,9.90
2014,03,25,14,06,9.90
2014,03,25,14,07,9.90
2014,03,25,14,08,9.90
2014,03,25,14,09,9.90
2014,03,25,14,10,9.80
2014,03,25,14,11,9.80
2014,03,25,14,12,9.80
2014,03,25,14,13,9.80
2014,03,25,14,14,9.80
2014,03,25,14,15,9.80
2014,03,25,14,16,9.80
2014,03,25,14,17,9.80
2014,03,25,14,18,9.80
2014,03,25,14,19,9.90
2014,03,25,14,20,9.90
2014,03,25,14,21,9.90
2014,03,25,14,22,9.90
2014,03,25,14,23,9.90
2014,03,25,14,24,9.90
2014,03,25,14,25,9.90
2014,03,25,14,26,9.90
2014,03,25,14,27,9.90
2014,03,25,14,28,10.00
2014,03,25,14,29,10.00
2014,03,25,14,30,10.10
2014,03,25,14,31,10.10
2014,03,25,14,32,10.10
2014,03,25,14,33,10.10
2014,03,25,14,34,10.10
2014,03,25,14,35,10.10
2014,03,25,14,36,10.10
2014,03,25,14,37,10.10
2014,03,25,14,38,10.10
2014,03,25,14,39,10.20
2014,03,25,14,40,10.30
2014,03,25,14,41,10.30
2014,03,25,14,42,10.30
2014,03,25,14,43,10.40
2014,03,25,14,44,10.50
2014,03,25,14,45,10.50
2014,03,25,14,46,10.50
2014,03,25,14,47,10.60
2014,03,25,14,48,10.70
2014,03,25,14,49,10.80
2014,03,25,14,50,10.90
2014,03,25,14,51,11.00
2014,03,25,14,52,11.20
2014,03,25,14,53,11.30
2014,03,25,14,54,11.40
2014,03,25,14,55,11.50
2014,03,25,14,56,11.60
2014,03,25,14,57,11.60
2014,03,25,14,58,11.70
2014,03,25,14,59,11.70
2014,03,25,15,00,11.80
2014,03,25,15,01,11.80
2014,03,25,15,02,11.90
2014,03,25,15,03,12.00
2014,03,25,15,04,12.00
2014,03,25,15,05,12.10
2014,03,25,15,06,12.20
2014,03,25,15,07,12.30
2014,03,25,15,08,12.30
2014,03,25,15,09,12.30
2014,03,25,15,10,12.30
2014,03,25,15,11,12.30
2014,03,25,15,12,12.30
2014,03,25,15,13,12.30
2014,03,25,15,14,12.30
2014,03,25,15,15,12.30
2014,03,25,15,16,12.30
2014,03,25,15,17,12.40
2014,03,25,15,18,12.40
2014,03,25,15,19,12.40
2014,03,25,15,20,12.40
2014,03,25,15,21,12.50
2014,03,25,15,22,12.50
2014,03,25,15,23,12.50
2014,03,25,15,24,12.60
2014,03,25,15,25,12.60
2014,03,25,15,26,12.60
2014,03,25,15,27,12.60
2014,03,25,15,28,12.60
2014,03,25,15,29,12.60
2014,03,25,15,30,12.50
2014,03,25,15,31,12.50
2014,03,25,15,32,12.50
2014,03,25,15,33,12.40
2014,03,25,15,34,12.40
2014,03,25,15,35,12.40
2014,03,25,15,36,12.30
2014,03,25,15,37,12.20
2014,03,25,15,38,12.10
2014,03,25,15,39,12.00
2014,03,25,15,40,11.90
2014,03,25,15,41,11.80
2014,03,25,15,42,11.60
2014,03,25,15,43,11.50
2014,03,25,15,44,11.40
2014,03,25,15,45,11.30
2014,03,25,15,46,11.20
2014,03,25,15,47,11.20
2014,03,25,15,48,11.10
2014,03,25,15,49,11.10
2014,03,25,15,50,11.00
2014,03,25,15,51,11.00
2014,03,25,15,52,11.00
2014,03,25,15,53,11.00
2014,03,25,15,54,11.00
2014,03,25,15,55,11.10
2014,03,25,15,56,11.10
2014,03,25,15,57,11.20
2014,03,25,15,58,11.30
2014,03,25,15,59,11.30
2014,03,25,16,00,11.30
2014,03,25,16,01,11.30
2014,03,25,16,02,11.30
2014,03,25,16,03,11.30
2014,03,25,16,04,11.40
2014,03,25,16,05,11.40
2014,03,25,16,06,11.50
2014,03,25,16,07,11.50
2014,03,25,16,08,11.60
2014,03,25,16,09,11.60
2014,03,25,16,10,11.60
2014,03,25,16,11,11.70
2014,03,25,16,12,11.70
2014,03,25,16,13,11.70
2014,03,25,16,14,11.70
2014,03,25,16,15,11.70
2014,03,25,16,16,11.70
2014,03,25,16,17,11.70
2014,03,25,16,18,11.70
2014,03,25,16,19,11.70
2014,03,25,16,20,11.60
2014,03,25,16,21,11.60
2014,03,25,16,22,11.60
2014,03,25,16,23,11.50
2014,03,25,16,24,11.50
2014,03,25,16,25,11.40
2014,03,25,16,26,11.40
2014,03,25,16,27,11.40
2014,03,25,16,28,11.40
2014,03,25,16,29,11.40
2014,03,25,16,30,11.40
2014,03,25,16,31,11.50
2014,03,25,16,32,11.50
2014,03,25,16,33,11.40
2014,03,25,16,34,11.40
2014,03,25,16,35,11.40
2014,03,25,16,36,11.40
2014,03,25,16,37,11.40
2014,03,25,16,38,11.40
2014,03,25,16,39,11.40
2014,03,25,16,40,11.40
2014,03,25,16,41,11.40
2014,03,25,16,42,11.40
2014,03,25,16,43,11.40
2014,03,25,16,44,11.50
2014,03,25,16,45,11.50
2014,03,25,16,46,11.50
2014,03,25,16,47,11.50
2014,03,25,16,48,11.50
2014,03,25,16,49,11.60
2014,03,25,16,50,11.60
2014,03,25,16,51,11.60
2014,03,25,16,52,11.50
2014,03,25,16,53,11.50
2014,03,25,16,54,11.40
2014,03,25,16,55,11.40
2014,03,25,16,56,11.40
2014,03,25,16,57,11.40
2014,03,25,16,58,11.40
2014,03,25,16,59,11.40
2014,03,25,17,00,11.30
2014,03,25,17,01,11.30
2014,03,25,17,02,11.30
2014,03,25,17,03,11.30
2014,03,25,17,04,11.30
2014,03,25,17,05,11.20
2014,03,25,17,06,11.20
2014,03,25,17,07,11.20
2014,03,25,17,08,11.20
2014,03,25,17,09,11.20
2014,03,25,17,10,11.20
2014,03,25,17,11,11.20
2014,03,25,17,12,11.20
2014,03,25,17,13,11.20
2014,03,25,17,14,11.20
2014,03,25,17,15,11.30
2014,03,25,17,16,11.30
2014,03,25,17,17,11.30
2014,03,25,17,18,11.30
2014,03,25,17,19,11.30
2014,03,25,17,20,11.30
2014,03,25,17,21,11.30
2014,03,25,17,22,11.30
2014,03,25,17,23,11.30
2014,03,25,17,24,11.30
2014,03,25,17,25,11.30
2014,03,25,17,26,11.40
2014,03,25,17,27,11.40
2014,03,25,17,28,11.40
2014,03,25,17,29,11.30
2014,03,25,17,30,11.30
2014,03,25,17,31,11.30
2014,03,25,17,32,11.30
2014,03,25,17,33,11.20
2014,03,25,17,34,11.20
2014,03,25,17,35,11.20
2014,03,25,17,36,11.20
2014,03,25,17,37,11.20
2014,03,25,17,38,11.10
2014,03,25,17,39,11.10
2014,03,25,17,40,11.00
2014,03,25,17,41,10.90
2014,03,25,17,42,10.80
2014,03,25,17,43,10.70
2014,03,25,17,44,10.70
2014,03,25,17,45,10.60
2014,03,25,17,46,10.50
2014,03,25,17,47,10.50